SCP
0 0 0 0 0 0 0 0 0 0 0 0 0 1 1 1 1 1 1 1 1 1 1 1 1 1 1 1 1 1 1 1 0 0 0 0 0 0 1 1 1 1 1
0 0 0 0 0 0 0 0 0 0 0 0 0 0 1 1 1 1 1 1 1 1 1 1 1 1 1 1 1 1 1 1 0 0 0 0 0 0 0 0 1 1 1
0 0 0 0 0 0 0 0 0 0 0 0 0 0 1 1 1 1 1 1 1 1 1 1 1 1 1 1 1 1 1 1 1 1 1 0 0 0 0 0 0 0 0
0 0 0 0 0 0 0 0 0 0 0 0 0 0 0 1 1 1 1 1 1 1 1 1 1 1 1 1 1 1 1 1 1 1 1 1 0 0 0 0 0 0 0
0 0 0 0 0 0 0 0 0 0 0 0 0 0 0 0 0 1 1 1 1 1 1 1 1 1 1 1 1 1 1 1 1 1 1 1 1 0 0 0 0 0 0
0 0 0 0 0 0 0 0 0 0 0 0 0 0 0 0 0 0 1 1 1 1 1 1 1 1 1 1 1 1 1 1 1 1 1 1 1 1 1 1 1 1 1
0 0 0 0 0 0 0 0 0 0 0 0 0 0 0 0 0 0 0 1 1 1 1 1 1 1 1 1 1 1 1 1 1 1 1 1 1 1 1 1 1 1 1
0 0 0 0 0 0 0 0 0 0 0 0 0 0 0 0 0 0 0 0 0 1 1 1 1 1 1 1 1 1 1 1 1 1 1 1 1 1 1 1 1 1 1
0 0 0 0 0 0 0 0 0 0 0 0 0 0 0 0 0 0 0 0 0 0 1 1 1 1 1 1 1 0 1 1 1 1 1 1 1 1 1 1 1 1 1
0 0 0 0 0 0 0 0 0 0 0 0 0 0 0 0 0 0 0 0 0 0 0 1 1 1 1 1 1 1 0 1 1 1 1 1 1 1 1 1 1 1 0
0 0 0 0 0 0 0 0 0 0 0 0 0 0 0 0 0 0 0 0 0 0 0 1 1 1 1 1 1 1 0 0 1 1 1 1 1 1 1 1 1 1 0
0 0 0 0 0 0 0 0 0 0 0 0 0 0 0 0 0 0 0 0 0 0 1 1 1 0 1 1 1 0 0 0 0 0 0 1 1 1 1 1 1 1 1
0 0 0 0 0 0 0 0 0 0 0 0 0 0 0 0 0 0 0 0 0 0 0 0 0 0 0 0 0 0 0 0 0 0 0 1 1 1 1 1 1 1 1
0 0 0 0 0 0 0 0 0 0 0 0 0 0 0 0 0 0 0 0 0 0 0 0 0 0 0 0 0 0 0 0 0 0 0 0 1 1 1 1 1 1 1
0 0 0 0 0 0 0 0 0 0 0 0 0 0 0 0 0 0 0 0 0 0 0 0 0 0 0 0 0 0 0 0 0 0 0 0 1 1 1 1 1 1 1
0 0 0 0 0 0 0 0 0 0 0 0 0 0 0 0 0 0 0 0 0 0 0 0 0 0 1 1 0 0 0 0 0 0 0 0 0 0 0 0 1 1 1
0 0 0 0 0 0 0 0 0 0 0 0 0 0 0 0 0 0 0 0 0 0 0 0 0 0 0 0 0 0 0 0 0 0 0 0 0 0 0 0 0 1 1
1 0 0 0 0 0 0 0 0 0 0 0 0 0 0 0 0 0 0 0 0 0 0 0 0 0 0 0 0 0 0 0 0 0 0 0 0 0 0 0 0 0 0
1 0 0 0 0 0 0 0 0 0 0 0 0 0 0 0 0 0 0 0 0 0 0 0 0 0 0 0 0 0 0 0 0 0 0 0 0 0 0 0 0 0 0
1 1 0 0 0 0 0 0 0 0 0 0 0 0 0 0 0 0 0 0 0 0 0 0 0 0 0 0 0 0 0 0 0 0 0 0 0 0 0 0 0 0 0
1 1 1 1 0 0 0 0 0 0 0 0 0 0 0 0 0 0 0 0 0 0 0 0 0 0 0 0 0 0 0 0 0 0 0 0 0 0 0 0 0 0 0
1 1 1 1 1 1 0 0 0 0 0 0 0 0 0 0 0 0 0 0 0 0 0 0 0 0 0 0 0 0 0 0 0 0 0 0 0 0 0 0 0 0 0
1 1 1 1 1 1 1 0 0 0 0 0 0 0 0 0 0 0 0 0 0 0 0 0 0 0 0 0 0 0 0 0 0 0 0 0 0 0 0 0 0 0 0
0 1 1 1 1 1 1 1 0 0 0 0 0 0 0 0 0 0 0 0 0 0 0 0 0 0 0 0 0 0 0 0 0 0 0 0 0 0 0 0 0 0 0
0 1 1 1 1 1 1 1 1 0 0 0 0 0 0 0 0 0 0 0 0 0 0 0 0 0 0 0 0 0 0 0 0 0 0 0 0 0 0 0 0 0 0
1 1 1 1 1 0 0 1 1 0 0 0 0 0 0 0 0 0 0 0 0 0 0 0 0 0 0 0 0 0 0 0 0 0 0 0 0 0 0 0 0 0 0
Wind_Speed
2 2 2 1 2 2 2 2 3 3 3 3 3 2 1 1 1 1 3 6 6 5 5 5 6 6 6 7 7 6 6 5 6 7 7 7 7 8 9 10 10 10 11
2 2 3 3 3 3 2 2 3 3 3 2 3 2 1 1 1 0 2 4 5 5 5 6 6 6 6 7 7 6 6 6 6 6 7 7 7 8 9 9 10 10 11
3 3 3 3 3 3 3 3 4 3 4 3 3 2 1 0 1 1 1 3 3 4 5 6 6 6 6 7 7 7 7 6 7 7 7 7 7 8 9 9 10 10 10
5 3 3 3 4 3 3 3 2 3 3 3 3 2 1 0 1 2 0 2 2 2 4 6 6 6 6 6 7 7 7 7 7 7 7 7 7 8 8 9 10 10 10
6 4 2 2 4 3 3 4 3 3 3 3 3 2 1 0 1 1 0 2 2 3 3 5 6 6 5 5 6 7 9 9 8 8 8 7 7 8 8 9 10 10 10
4 4 3 4 4 3 3 3 4 4 2 2 3 2 1 1 0 0 1 1 2 2 3 3 3 4 5 5 5 6 8 10 9 9 9 9 8 8 8 9 9 10 10
4 3 3 3 2 3 3 4 3 5 3 2 2 2 1 0 0 1 1 2 2 1 2 2 2 3 3 5 5 6 7 9 9 10 10 10 9 9 9 9 10 10 10
4 5 4 4 3 2 3 3 3 3 3 3 1 1 2 2 2 1 1 1 1 1 1 1 2 3 3 3 4 6 6 7 8 9 10 10 10 10 10 9 10 10 10
2 3 4 4 4 3 3 3 3 3 3 3 2 1 1 1 1 1 1 1 1 1 1 0 1 2 3 3 3 5 5 6 6 7 8 9 9 10 10 10 10 10 10
1 1 2 3 3 2 3 4 4 3 3 3 3 2 0 0 0 0 1 1 1 2 1 1 1 1 2 3 3 5 6 5 6 7 8 8 9 9 10 10 10 10 10
2 1 0 2 3 2 3 3 3 3 2 2 2 2 2 2 1 1 0 0 1 1 1 1 1 1 1 2 3 5 6 6 6 6 7 8 8 9 10 10 10 10 11
1 2 1 1 2 2 2 2 2 3 2 2 2 2 2 1 2 1 1 0 0 0 1 1 1 1 1 2 3 5 6 6 6 5 5 6 7 8 10 10 11 11 11
1 1 1 0 1 2 2 2 2 2 2 2 1 1 2 1 1 1 1 0 1 0 1 1 1 1 1 2 3 5 6 6 5 5 5 5 5 7 8 9 9 10 11
1 1 1 0 1 1 2 1 2 2 2 2 3 2 1 1 1 1 1 1 0 0 0 1 1 1 1 2 3 4 4 6 5 5 5 5 5 5 6 7 7 7 8
1 1 1 2 2 1 1 1 1 2 2 2 2 3 2 1 1 1 1 1 1 1 0 1 0 1 1 2 3 3 3 5 6 6 6 6 5 5 6 6 6 5 5
1 1 2 2 2 3 3 1 1 1 2 1 1 1 1 1 1 1 0 0 1 1 1 1 1 1 1 3 3 3 4 7 6 6 6 6 6 6 6 6 6 6 5
3 3 3 2 2 2 2 2 2 1 2 3 2 1 0 1 1 1 1 1 1 1 1 1 1 1 1 2 2 2 3 4 3 6 6 6 6 6 6 6 5 6 6
3 3 2 3 3 2 2 2 2 2 3 3 2 1 1 0 0 1 1 1 1 0 1 1 1 1 1 2 2 2 2 3 3 6 7 7 7 6 6 5 5 6 6
3 4 3 3 3 2 2 3 4 4 4 3 2 2 1 1 1 1 0 1 1 0 1 2 1 1 1 1 2 1 2 2 3 5 6 7 7 7 6 6 6 6 6
3 3 4 3 2 2 2 3 2 3 3 3 3 3 2 1 1 1 1 1 1 0 1 1 1 1 1 1 2 2 1 1 1 3 3 5 6 7 7 7 6 6 6
5 4 4 4 3 2 2 1 2 3 3 3 3 3 3 4 4 2 1 0 0 0 1 1 1 1 1 2 2 2 2 2 1 1 2 3 4 3 3 5 6 7 7
5 5 5 4 4 3 2 3 2 3 4 4 4 3 4 5 6 6 5 4 3 1 1 1 2 2 3 3 2 2 3 2 1 1 2 2 3 3 3 3 6 7 7
5 5 5 5 5 5 5 5 6 4 5 5 5 3 3 4 6 6 7 6 4 4 4 2 2 3 3 4 4 3 2 2 3 2 2 1 2 3 3 5 9 8 7
5 5 5 5 6 6 7 7 7 5 5 6 6 5 4 4 5 6 6 6 5 5 6 5 3 2 2 3 4 4 4 2 1 1 2 2 2 3 4 3 8 9 8
5 5 5 5 6 7 7 7 6 4 5 6 7 7 6 5 7 7 5 5 5 5 7 8 7 5 4 4 4 3 3 3 2 2 2 3 2 3 3 3 4 8 8
5 6 6 6 6 6 6 6 6 4 5 5 5 6 8 8 8 9 6 5 5 5 5 6 5 5 5 5 6 4 4 3 3 2 3 3 3 3 3 2 3 4 4
Wind_Direction
358 358 329 6 337 351 348 325 311 319 317 311 309 310 327 325 310 97 130 145 148 164 176 180 180 174 172 170 166 163 157 148 142 139 138 133 127 126 121 119 116 114 112
358 6 358 360 356 343 336 316 314 329 322 315 308 309 305 318 308 81 144 150 159 170 180 185 180 175 172 171 172 169 165 161 156 151 147 143 138 137 131 127 124 121 118
15 34 13 0 350 339 342 340 340 342 326 323 309 297 301 298 312 302 155 154 164 177 180 177 174 170 171 175 175 171 169 166 165 163 158 151 148 146 144 140 137 132 128
16 31 26 357 341 352 354 338 347 344 332 330 325 320 327 94 297 301 223 150 147 157 165 166 159 161 167 173 177 174 174 172 169 169 165 158 156 155 153 149 147 143 138
7 28 1 343 2 1 356 340 2 348 330 326 305 274 279 246 253 283 272 136 135 138 143 158 158 161 168 172 177 180 178 178 175 173 167 163 163 161 158 156 153 152 149
6 14 348 20 11 354 352 345 352 337 312 299 308 331 286 240 157 317 18 104 127 142 137 149 155 168 170 168 168 177 181 179 178 178 174 171 169 166 164 161 160 159 156
10 9 2 360 5 355 354 350 351 338 329 340 356 339 319 260 128 116 74 74 75 98 120 146 157 146 162 167 167 172 176 179 180 183 181 177 174 170 169 167 168 164 162
19 2 12 352 358 352 359 351 359 350 335 354 5 354 355 8 350 88 99 108 96 94 96 156 143 141 147 144 165 165 168 174 178 183 185 181 177 175 175 174 173 171 170
46 12 356 351 342 5 356 346 16 4 342 333 6 41 31 343 336 7 74 102 111 103 101 100 130 140 145 131 146 167 163 168 175 179 183 184 181 180 179 180 180 177 175
104 48 359 342 337 357 3 1 22 349 349 343 342 356 339 209 120 4 353 50 96 95 84 73 93 104 130 132 142 155 159 162 171 179 183 187 188 185 184 183 184 181 179
145 134 348 318 325 349 16 5 4 350 348 352 341 339 347 351 329 133 148 22 47 49 72 67 78 77 124 135 142 152 162 166 169 179 185 188 190 191 189 188 188 187 184
178 153 162 316 332 6 6 356 349 352 358 351 343 341 350 4 352 42 121 161 121 54 73 64 76 78 108 113 128 150 160 161 169 171 172 179 186 186 189 191 191 190 188
149 136 110 337 346 349 340 356 340 341 341 346 342 330 331 343 357 33 88 118 159 169 107 102 129 131 127 113 114 141 157 162 169 168 169 173 178 178 180 186 188 190 192
183 140 138 203 266 339 342 352 327 339 352 351 354 346 331 337 6 57 83 87 89 45 108 168 172 159 137 124 136 147 153 166 171 168 166 165 158 163 170 177 179 188 193
225 131 190 216 210 195 271 336 339 350 342 349 350 346 344 325 13 48 63 129 138 151 224 182 139 166 150 134 149 156 151 166 168 170 172 169 165 161 162 163 168 176 181
250 217 243 243 219 199 195 196 295 291 313 293 245 284 324 341 345 9 329 352 129 159 188 187 175 166 140 150 161 159 158 158 163 165 168 170 166 159 155 155 157 158 159
264 224 216 243 246 221 193 180 229 254 289 297 286 247 213 23 353 358 10 8 1 94 140 183 141 146 133 127 141 152 152 157 165 167 165 165 165 163 161 161 163 167 166
286 275 223 230 247 234 210 192 220 237 249 270 288 305 269 159 72 7 14 344 339 117 133 166 174 150 157 147 143 152 152 150 153 165 168 169 166 164 161 159 162 164 165
278 288 270 239 242 233 219 216 213 224 232 229 231 245 255 200 188 188 190 305 307 61 128 152 173 156 149 135 119 115 107 114 147 156 164 167 166 164 161 159 155 155 154
284 277 289 285 271 250 243 245 240 237 240 236 222 216 210 198 185 196 189 242 273 114 160 152 159 174 159 154 136 153 137 137 151 149 143 151 158 158 160 158 155 153 151
312 302 293 291 290 275 277 303 300 281 262 253 243 215 186 166 150 146 133 120 49 123 178 170 181 186 190 165 181 181 163 166 170 141 139 150 144 143 158 158 152 151 150
310 314 308 300 292 288 271 257 267 295 293 279 264 234 197 183 182 179 173 172 160 167 204 202 194 195 202 185 177 174 162 155 193 213 149 168 155 153 153 136 142 143 145
315 303 299 298 291 275 257 247 242 253 270 277 277 263 245 208 188 187 197 201 206 212 207 201 214 220 199 187 172 173 171 169 185 192 141 158 146 134 137 140 144 142 142
308 298 289 285 285 279 261 245 243 243 254 262 266 259 245 229 209 197 191 194 203 211 214 208 211 236 221 181 168 174 175 154 135 158 136 159 170 148 133 134 150 147 145
313 306 301 288 281 281 269 256 240 248 249 251 254 253 241 228 218 208 202 203 203 213 207 192 185 181 168 159 154 137 147 143 176 217 184 162 168 143 136 144 160 160 156
313 313 309 303 297 294 293 272 245 255 261 259 254 253 245 233 221 209 204 211 216 214 193 186 188 189 188 186 183 177 171 171 181 203 202 169 170 147 148 159 161 168 167